User: anonymous   Login
Location: Newark
(37.8444°N, 127.0614°E)
Time: 11:51:42
(UTC+00:00)
Language:

Gurwin Techsat 1B - Orbit

View from above orbital plane
View from above orbital plane
View from above satellite
View from above satellite

Ground track
Ground track

The orbit data is extracted from the following two-line orbital elements,

1 25397U 98043D   20018.83495331 -.00000010  00000-0  14797-4 0  9991
2 25397  98.7132 321.6092 0002166 113.6948 246.4458 14.23677879118342
Epoch (UTC): 18 January 2020 20:02:19
Eccentricity: 0.0002166
inclination: 98.7132°
perigee height: 811 km
apogee height: 814 km
right ascension of ascending node: 321.6092°
argument of perigee: 113.6948°
revolutions per day: 14.23677879
mean anomaly at epoch: 246.4458°
orbit number at epoch: 11834

The dashed part of the orbit path shows where the satellite is in the earth's shadow,  

DLR